Data for 10/27/2016

Time Sea-Level Adjusted Pressure Absolute Pressure Temperature Relative Humidity Dew Point   
(mb) (inHg) (mb) (inHg) (C) (F) (%) (C) (F)
00:05 1020 30.12 849 25.07 12.1 53.8 46 0.9 33.7
00:10 1020 30.12 849 25.07 11.9 53.3 45 0.2 32.4
00:15 1020 30.12 849 25.07 12.1 53.7 45 0.6 33.1
00:20 1020 30.12 849 25.07 11.8 53.2 46 0.6 33.1
00:25 1020 30.12 849 25.07 11.8 53.2 46 0.7 33.2
00:30 1020 30.12 849 25.07 11.5 52.7 48 0.8 33.5
00:35 1020 30.12 849 25.07 11.5 52.7 47 0.7 33.3
00:40 1020 30.12 849 25.07 11.3 52.3 47 0.5 33
00:45 1020 30.12 849 25.07 11.5 52.7 47 0.6 33.1
00:50 1020 30.12 849 25.07 11.4 52.4 48 0.8 33.4
00:55 1020 30.12 849 25.07 11.3 52.3 48 0.6 33.2
01:00 1019 30.09 849 25.07 11.4 52.5 47 0.6 33.2
01:05 1019 30.09 849 25.07 11.3 52.4 47 0.5 32.9
01:10 1019 30.09 849 25.07 11.4 52.5 47 0.6 33.2
01:15 1019 30.09 849 25.07 11.4 52.5 47 0.5 32.8
01:20 1019 30.09 848 25.04 11.4 52.6 47 0.6 33.1
01:25 1019 30.09 848 25.04 11.4 52.6 47 0.5 32.9
01:30 1019 30.09 848 25.04 11.3 52.4 48 0.6 33.2
01:35 1019 30.09 848 25.04 11.4 52.5 47 0.5 32.9
01:40 1019 30.09 848 25.04 11.3 52.3 47 0.4 32.7
01:45 1019 30.09 848 25.04 11.2 52.2 47 0.5 32.8
01:50 1019 30.09 848 25.04 11.2 52.1 47 0.4 32.7
01:55 1019 30.09 848 25.04 11.1 51.9 48 0.5 33
02:00 1019 30.09 848 25.04 11 51.8 48 0.5 32.9
02:05 1019 30.09 848 25.04 10.8 51.5 49 0.4 32.8
02:10 1019 30.09 848 25.04 10.8 51.4 48 0.3 32.6
02:15 1019 30.09 848 25.04 11.2 52.1 48 0.5 32.9
02:20 1019 30.09 848 25.04 10.7 51.3 50 0.7 33.3
02:25 1019 30.09 848 25.04 10.5 50.8 49 0.3 32.5
02:30 1019 30.09 848 25.04 10.5 50.9 50 0.5 32.8
02:35 1019 30.09 848 25.04 10.6 51.1 48 0.1 32.2
02:40 1019 30.09 848 25.04 10.7 51.3 49 0.4 32.7
02:45 1019 30.09 848 25.04 10.7 51.3 48 0.2 32.3
02:50 1019 30.09 848 25.04 10.8 51.4 47 0 32
02:55 1019 30.09 848 25.04 11.1 51.9 47 0.2 32.4
03:00 1019 30.09 848 25.04 11 51.8 48 0.5 32.8
03:05 1019 30.09 848 25.04 10.9 51.6 47 0.1 32.3
03:10 1019 30.09 848 25.04 10.8 51.5 47 0.1 32.2
03:15 1019 30.09 848 25.04 10.7 51.2 48 0.1 32.1
03:20 1018 30.06 848 25.04 10.5 51 48 0 32.1
03:25 1018 30.06 848 25.04 10.5 50.8 50 0.4 32.7
03:30 1018 30.06 847 25.01 10.3 50.5 50 0.3 32.5
03:35 1018 30.06 847 25.01 10.3 50.5 49 0.1 32.2
03:40 1018 30.06 847 25.01 10.3 50.5 50 0.3 32.6
03:45 1018 30.06 847 25.01 10.2 50.3 50 0.2 32.3
03:50 1018 30.06 847 25.01 10.5 50.8 48 -0 31.9
03:55 1018 30.06 847 25.01 10.8 51.5 47 0.1 32.2
04:00 1018 30.06 847 25.01 10.8 51.5 48 0.3 32.5
04:05 1018 30.06 847 25.01 10.9 51.7 47 0.1 32.1
04:10 1018 30.06 847 25.01 11 51.7 47 0.3 32.5
04:15 1018 30.06 847 25.01 10.9 51.6 48 0.3 32.5
04:20 1018 30.06 847 25.01 10.9 51.6 47 0.1 32.2
04:25 1018 30.06 847 25.01 10.9 51.5 47 0 32.1
04:30 1018 30.06 847 25.01 11 51.7 46 -0 31.9
04:35 1018 30.06 847 25.01 11.1 52 46 -0.1 31.8
04:40 1018 30.06 847 25.01 11 51.7 47 0.2 32.4
04:45 1018 30.06 847 25.01 10.8 51.4 47 0 32
04:50 1018 30.06 847 25.01 10.9 51.5 47 -0.1 31.8
04:55 1018 30.06 847 25.01 11 51.7 47 0 32
05:00 1018 30.06 847 25.01 11 51.8 45 -0.3 31.5
05:05 1018 30.06 847 25.01 11 51.9 45 -0.4 31.3
05:10 1018 30.06 847 25.01 11.2 52.2 44 -0.5 31.2
05:15 1018 30.06 847 25.01 11.1 52 44 -0.6 30.9
05:20 1018 30.06 847 25.01 11 51.7 45 -0.5 31.1
05:25 1018 30.06 847 25.01 11 51.8 44 -0.7 30.8
05:30 1018 30.06 847 25.01 10.9 51.7 45 -0.5 31.1
05:35 1018 30.06 847 25.01 11 51.8 45 -0.5 31.2
05:40 1018 30.06 847 25.01 10.8 51.4 46 -0.5 31.2
05:45 1018 30.06 847 25.01 10.7 51.2 46 -0.5 31
05:50 1018 30.06 847 25.01 11.2 52.2 43 -0.8 30.5
05:55 1018 30.06 847 25.01 11.3 52.4 43 -0.7 30.8
06:00 1018 30.06 847 25.01 11.5 52.6 43 -0.5 31.2
06:05 1018 30.06 847 25.01 11.5 52.8 43 -0.5 31.1
06:10 1018 30.06 847 25.01 11.3 52.3 43 -0.7 30.7
06:15 1018 30.06 847 25.01 11.2 52.2 44 -0.5 31
06:20 1018 30.06 847 25.01 10.9 51.6 44 -0.7 30.7
06:25 1018 30.06 847 25.01 10.9 51.7 44 -0.8 30.5
06:30 1018 30.06 847 25.01 11 51.8 44 -0.7 30.8
06:35 1018 30.06 847 25.01 11.1 51.9 44 -0.7 30.8
06:40 1018 30.06 847 25.01 11.1 51.9 44 -0.7 30.7
06:45 1017 30.03 847 25.01 11 51.7 45 -0.5 31.2
06:50 1017 30.03 847 25.01 10.9 51.5 44 -0.8 30.5
06:55 1017 30.03 847 25.01 10.8 51.4 45 -0.6 30.9
07:00 1017 30.03 847 25.01 10.5 51 46 -0.6 30.9
07:05 1017 30.03 847 25.01 10.5 51 46 -0.7 30.8
07:10 1017 30.03 846 24.98 10.5 50.9 46 -0.7 30.8
07:15 1017 30.03 846 24.98 10.5 50.9 46 -0.7 30.8
07:20 1017 30.03 846 24.98 10.5 50.9 46 -0.6 30.9
07:25 1017 30.03 846 24.98 10.6 51 45 -0.7 30.8
07:30 1017 30.03 846 24.98 10.8 51.4 45 -0.8 30.6
07:35 1017 30.03 846 24.98 10.9 51.7 45 -0.6 30.9
07:40 1017 30.03 846 24.98 11.1 52 44 -0.7 30.8
07:45 1017 30.03 846 24.98 11.3 52.3 43 -0.7 30.7
07:50 1017 30.03 846 24.98 11.5 52.7 42 -0.8 30.6
07:55 1017 30.03 846 24.98 11.7 53 42 -0.7 30.8
08:00 1017 30.03 846 24.98 11.8 53.2 42 -0.8 30.6
08:05 1017 30.03 846 24.98 12 53.5 41 -0.7 30.7
08:10 1017 30.03 847 25.01 12 53.6 42 -0.6 31
08:15 1017 30.03 847 25.01 12.2 54 40 -0.8 30.5
08:20 1017 30.03 847 25.01 12.4 54.3 40 -0.8 30.5
08:25 1018 30.06 847 25.01 12.6 54.7 39 -0.9 30.4
08:30 1018 30.06 847 25.01 12.9 55.2 38 -0.8 30.5
08:35 1018 30.06 847 25.01 13.2 55.8 37 -0.9 30.3
08:40 1017 30.03 847 25.01 13.4 56.1 39 -0.4 31.3
08:45 1017 30.03 847 25.01 13.4 56.1 38 -0.4 31.3
08:50 1017 30.03 847 25.01 13.4 56.1 39 -0.1 31.8
08:55 1017 30.03 847 25.01 13.3 56 41 0.6 33.1
09:00 1017 30.03 847 25.01 13.1 55.6 41 0.4 32.7
09:05 1017 30.03 847 25.01 13.4 56.1 42 0.6 33.1
09:10 1017 30.03 846 24.98 13.4 56.1 41 0.4 32.7
09:15 1017 30.03 846 24.98 13.6 56.4 40 0.3 32.5
09:20 1017 30.03 846 24.98 14.1 57.4 37 -0.2 31.7
09:25 1017 30.03 846 24.98 14.5 58 38 0.5 32.8
09:30 1017 30.03 846 24.98 14.8 58.6 37 0.1 32.3
09:35 1017 30.03 846 24.98 15 59 37 0.6 33.1
09:40 1017 30.03 846 24.98 15.3 59.5 37 0.8 33.4
09:45 1017 30.03 846 24.98 15.5 59.9 37 0.9 33.6
09:50 1017 30.03 846 24.98 16 60.8 33 -0 31.9
09:55 1017 30.03 846 24.98 16.2 61.1 34 0.3 32.5
10:00 1017 30.03 846 24.98 16.2 61.2 33 0.2 32.3
10:05 1017 30.03 846 24.98 16.6 61.8 33 0.3 32.6
10:10 1016 30 846 24.98 16.9 62.4 32 0.2 32.4
10:15 1016 30 846 24.98 17.1 62.8 32 0.5 32.8
10:20 1016 30 846 24.98 17.1 62.8 31 0.1 32.2
10:25 1016 30 845 24.95 17.6 63.6 31 0.2 32.3
10:30 1016 30 845 24.95 18.3 64.9 29 0.1 32.2
10:35 1016 30 845 24.95 19.1 66.4 28 0.1 32.2
10:40 1016 30 845 24.95 19.5 67.2 27 0.2 32.3
10:45 1016 30 845 24.95 19.7 67.5 26 0 32.1
10:50 1016 30 845 24.95 19.9 67.8 29 1.3 34.3
10:55 1016 30 845 24.95 19.9 67.9 27 0.7 33.2
11:00 1016 30 845 24.95 19.9 67.9 27 0.6 33.1
11:05 1016 30 845 24.95 19.9 67.8 25 -0.4 31.3
11:10 1015 29.97 845 24.95 20 68 26 -0.1 31.8
11:15 1015 29.97 845 24.95 20 68 26 -0.1 31.9
11:20 1015 29.97 845 24.95 20.1 68.2 26 0.1 32.1
11:25 1015 29.97 845 24.95 20.4 68.7 24 -0.5 31.2
11:30 1015 29.97 845 24.95 20.5 69 25 -0 32
11:35 1015 29.97 844 24.92 20.9 69.6 23 -0.9 30.4
11:40 1015 29.97 844 24.92 21.3 70.3 22 -0.9 30.4
11:45 1015 29.97 844 24.92 21.5 70.7 22 -0.7 30.8
11:50 1015 29.97 844 24.92 21.5 70.7 22 -0.6 30.9
11:55 1015 29.97 844 24.92 21.8 71.2 22 -0.9 30.4
12:00 1015 29.97 844 24.92 21.7 71.1 21 -1.1 30
12:05 1015 29.97 844 24.92 21.6 70.9 25 1 33.8
12:10 1015 29.97 844 24.92 21.4 70.5 23 -0.6 31
12:15 1015 29.97 844 24.92 21.4 70.5 23 -0.3 31.4
12:20 1015 29.97 844 24.92 21.2 70.2 23 -0.7 30.7
12:25 1015 29.97 844 24.92 21.1 70 23 -0.7 30.8
12:30 1015 29.97 844 24.92 20.9 69.6 23 -0.8 30.5
12:35 1015 29.97 844 24.92 20.8 69.5 23 -0.8 30.5
12:40 1015 29.97 844 24.92 20.9 69.5 25 0.1 32.2
12:45 1015 29.97 844 24.92 20.8 69.5 31 3.2 37.7
12:50 1015 29.97 844 24.92 20.2 68.4 30 2.4 36.3
12:55 1015 29.97 844 24.92 19.7 67.5 32 2.6 36.7
13:00 1015 29.97 844 24.92 19.9 67.8 30 2 35.6
13:05 1015 29.97 844 24.92 20.2 68.3 31 2.7 36.8
13:10 1014 29.94 844 24.92 20.1 68.1 31 2.8 37
13:15 1014 29.94 843 24.89 20.2 68.3 31 2.9 37.2
13:20 1014 29.94 843 24.89 20.4 68.8 32 3.5 38.2
13:25 1014 29.94 843 24.89 20.1 68.3 31 2.8 37
13:30 1014 29.94 843 24.89 20.8 69.4 25 0.1 32.3
13:35 1014 29.94 843 24.89 21.1 69.9 24 -0.4 31.3
13:40 1014 29.94 843 24.89 21.1 70 22 -1.2 29.8
13:45 1014 29.94 843 24.89 21.1 70 23 -0.6 30.9
13:50 1014 29.94 843 24.89 21 69.9 23 -0.7 30.7
13:55 1014 29.94 843 24.89 20.9 69.6 24 -0.5 31.1
14:00 1014 29.94 843 24.89 20.9 69.7 22 -1.6 29.1
14:05 1014 29.94 843 24.89 20.8 69.5 22 -1.5 29.2
14:10 1014 29.94 843 24.89 20.7 69.2 22 -1.6 29.1
14:15 1014 29.94 843 24.89 20.6 69.1 23 -1.4 29.5
14:20 1014 29.94 843 24.89 20.6 69.1 22 -1.6 29.1
14:25 1014 29.94 843 24.89 20.5 68.8 21 -2.4 27.6
14:30 1014 29.94 843 24.89 20.3 68.6 22 -1.9 28.6
14:35 1014 29.94 843 24.89 20.2 68.4 23 -1.2 29.8
14:40 1014 29.94 843 24.89 20 67.9 24 -0.9 30.4
14:45 1014 29.94 843 24.89 19.9 67.8 24 -1.2 29.8
14:50 1014 29.94 843 24.89 19.8 67.7 23 -1.6 29.1
14:55 1014 29.94 843 24.89 19.8 67.7 24 -1.4 29.5
15:00 1014 29.94 843 24.89 19.7 67.5 23 -1.7 28.9
15:05 1014 29.94 843 24.89 19.7 67.4 23 -1.7 29
15:10 1014 29.94 843 24.89 19.6 67.3 24 -1.2 29.8
15:15 1014 29.94 843 24.89 19.6 67.2 25 -0.8 30.6
15:20 1014 29.94 843 24.89 19.5 67.1 25 -0.8 30.5
15:25 1014 29.94 843 24.89 19.5 67.1 25 -1.1 30.1
15:30 1014 29.94 843 24.89 19.6 67.3 25 -0.7 30.7
15:35 1014 29.94 843 24.89 19.7 67.5 24 -1.5 29.3
15:40 1014 29.94 843 24.89 19.7 67.4 24 -1.5 29.4
15:45 1014 29.94 843 24.89 19.8 67.6 25 -0.8 30.6
15:50 1014 29.94 843 24.89 19.7 67.4 24 -1.1 30
15:55 1013 29.91 843 24.89 19.5 67.2 26 -0.6 31
16:00 1013 29.91 843 24.89 19.5 67.1 23 -1.8 28.8
16:05 1013 29.91 843 24.89 19.5 67 24 -1.6 29.1
16:10 1013 29.91 843 24.89 19.4 66.9 25 -1.1 29.9
16:15 1013 29.91 843 24.89 19.2 66.6 24 -1.9 28.5
16:20 1013 29.91 843 24.89 19.2 66.6 23 -2.2 28
16:25 1013 29.91 843 24.89 19.2 66.5 24 -1.6 29.1
16:30 1013 29.91 843 24.89 19 66.1 24 -2 28.4
16:35 1014 29.94 843 24.89 18.9 66 23 -2.6 27.3
16:40 1014 29.94 843 24.89 18.9 66 23 -2.8 26.9
16:45 1014 29.94 843 24.89 18.8 65.9 23 -2.4 27.6
16:50 1014 29.94 843 24.89 18.7 65.7 22 -3.1 26.5
16:55 1014 29.94 843 24.89 18.6 65.6 23 -2.7 27.1
17:00 1014 29.94 843 24.89 18.6 65.4 23 -2.6 27.3
17:05 1014 29.94 843 24.89 18.6 65.4 25 -1.5 29.3
17:10 1014 29.94 843 24.89 18.1 64.6 27 -0.8 30.6
17:15 1014 29.94 843 24.89 17.8 64 28 -0.9 30.4
17:20 1014 29.94 843 24.89 17.7 63.9 28 -0.8 30.5
17:25 1014 29.94 843 24.89 17.8 64 27 -1.5 29.3
17:30 1014 29.94 843 24.89 17.8 64.1 27 -1.1 30
17:35 1014 29.94 843 24.89 17.9 64.1 25 -2 28.3
17:40 1014 29.94 843 24.89 18.1 64.6 24 -2.8 27
17:45 1014 29.94 843 24.89 18.3 65 24 -2.5 27.5
17:50 1014 29.94 843 24.89 18.2 64.7 24 -2.7 27.1
17:55 1014 29.94 843 24.89 18.2 64.8 25 -2.2 28.1
18:00 1014 29.94 843 24.89 18.1 64.5 25 -2.1 28.3
18:05 1013 29.91 843 24.89 17.7 63.9 25 -2.4 27.6
18:10 1013 29.91 843 24.89 17.5 63.5 25 -2.6 27.3
18:15 1013 29.91 843 24.89 17.3 63.1 26 -2.1 28.3
18:20 1013 29.91 843 24.89 17.1 62.9 27 -2 28.4
18:25 1013 29.91 843 24.89 17.2 63 24 -3.3 26
18:30 1013 29.91 843 24.89 17.8 64 24 -2.7 27.1
18:35 1013 29.91 843 24.89 17.5 63.4 25 -2.5 27.4
18:40 1013 29.91 843 24.89 17.4 63.2 24 -3.2 26.2
18:45 1014 29.94 843 24.89 17.7 63.9 23 -3.3 26
18:50 1013 29.91 843 24.89 17.8 64.1 25 -2.4 27.7
18:55 1013 29.91 843 24.89 17.7 63.8 25 -2.7 27.2
19:00 1014 29.94 843 24.89 17.6 63.7 25 -2.6 27.2
19:05 1013 29.91 843 24.89 17.7 63.9 24 -2.9 26.9
19:10 1013 29.91 843 24.89 17.8 64 25 -2.1 28.2
19:15 1013 29.91 843 24.89 17.7 63.9 25 -2.6 27.2
19:20 1013 29.91 842 24.86 17.5 63.5 27 -1.7 28.9
19:25 1013 29.91 842 24.86 17.1 62.7 27 -2 28.5
19:30 1013 29.91 843 24.89 16.9 62.5 27 -2.2 28.1
19:35 1013 29.91 843 24.89 17.3 63.1 26 -2.4 27.7
19:40 1013 29.91 843 24.89 17.3 63.1 27 -1.9 28.6
19:45 1014 29.94 843 24.89 17 62.7 27 -1.8 28.8
19:50 1013 29.91 843 24.89 16.9 62.3 29 -1.1 30
19:55 1013 29.91 842 24.86 16.8 62.3 29 -1.4 29.4
20:00 1013 29.91 843 24.89 16.7 62.1 29 -1.5 29.3
20:05 1013 29.91 843 24.89 16.6 61.8 29 -1.6 29.1
20:10 1013 29.91 842 24.86 16.7 62 28 -1.7 29
20:15 1013 29.91 842 24.86 16.8 62.3 29 -1.3 29.7
20:20 1013 29.91 842 24.86 16.9 62.3 30 -0.8 30.6
20:25 1014 29.94 843 24.89 16.7 62 30 -1 30.1
20:30 1014 29.94 843 24.89 16.7 62.1 29 -1.1 30
20:35 1013 29.91 843 24.89 17 62.6 29 -1.2 29.9
20:40 1013 29.91 843 24.89 17.4 63.3 28 -1 30.2
20:45 1014 29.94 843 24.89 17.6 63.8 28 -0.8 30.6
20:50 1014 29.94 843 24.89 17.7 63.8 28 -1 30.2
20:55 1014 29.94 843 24.89 17.7 63.9 27 -1.2 29.8
21:00 1014 29.94 843 24.89 17.5 63.5 28 -0.9 30.3
21:05 1014 29.94 843 24.89 17.2 63 29 -0.8 30.5
21:10 1014 29.94 843 24.89 17.3 63.1 30 -0.5 31.1
21:15 1014 29.94 843 24.89 17.3 63.1 30 -0.6 31
21:20 1014 29.94 843 24.89 17.4 63.2 29 -0.9 30.3
21:25 1014 29.94 843 24.89 17.5 63.5 29 -0.8 30.6
21:30 1014 29.94 843 24.89 17.7 63.8 28 -0.8 30.5
21:35 1014 29.94 843 24.89 17.9 64.1 28 -0.7 30.7
21:40 1014 29.94 843 24.89 17.9 64.2 28 -0.7 30.7
21:45 1014 29.94 843 24.89 17.8 64 28 -0.6 30.9
21:50 1014 29.94 843 24.89 17.6 63.6 30 -0.3 31.5
21:55 1013 29.91 843 24.89 17.3 63.1 30 -0.5 31.1
22:00 1013 29.91 843 24.89 17.2 63 31 -0 32
22:05 1013 29.91 843 24.89 16.9 62.3 32 0 32.1
22:10 1013 29.91 843 24.89 16.8 62.3 31 -0.3 31.5
22:15 1013 29.91 843 24.89 17 62.7 31 -0.3 31.5
22:20 1014 29.94 843 24.89 16.9 62.4 32 0.1 32.1
22:25 1014 29.94 843 24.89 16.6 61.9 33 0.3 32.6
22:30 1014 29.94 843 24.89 16.4 61.4 33 0.2 32.4
22:35 1014 29.94 843 24.89 16.3 61.4 33 0.3 32.5
22:40 1014 29.94 843 24.89 16.3 61.3 33 -0 31.9
22:45 1013 29.91 843 24.89 16.4 61.6 32 -0.2 31.6
22:50 1013 29.91 843 24.89 16.8 62.2 31 -0.2 31.7
22:55 1013 29.91 843 24.89 16.9 62.4 31 -0.3 31.5
23:00 1013 29.91 843 24.89 17.1 62.7 30 -0.5 31.1
23:05 1014 29.94 843 24.89 17 62.7 31 -0.1 31.8
23:10 1014 29.94 843 24.89 16.9 62.3 31 -0.4 31.3
23:15 1013 29.91 843 24.89 16.9 62.4 31 -0.4 31.2
23:20 1013 29.91 843 24.89 16.9 62.4 30 -0.5 31
23:25 1013 29.91 842 24.86 17.1 62.7 30 -0.4 31.2
23:30 1013 29.91 842 24.86 17 62.6 30 -0.5 31.2
23:35 1013 29.91 842 24.86 17 62.7 30 -0.7 30.8
23:40 1013 29.91 842 24.86 17 62.6 30 -0.4 31.4
23:45 1013 29.91 842 24.86 16.9 62.5 30 -0.8 30.6
23:50 1013 29.91 842 24.86 17.1 62.8 30 -0.7 30.7
23:55 1013 29.91 842 24.86 17.1 62.7 29 -0.9 30.4
24:00 1013 29.91 842 24.86 17.1 62.7 29 -0.8 30.5